Location: Yellowknife
(62.4500°N, 114.3500°W)
Time: 02:01:00
(UTC-06:00)

Amateur Radio Satellites - All Passes

Search period start: 22 October 2014 01:31
Search period end: 23 October 2014 01:31
Location: Yellowknife, 62.4500°N, 114.3500°W

Satellite Date Start Highest point End Downlink Frequencies (MHz)
Time Altitude Azimuth
Oscar 16 22 Oct 01:32:58 01:35:20 13° 78° (ENE) 01:37:41 437.025 USB, Beacon 2401.1428
RS-15 22 Oct 01:50:30 02:01:23 77° 143° (SE) 02:12:26 29.354 - 29.394 USB, Beacon 29.352 USB
AO-Echo 22 Oct 01:53:53 01:55:58 12° 76° (ENE) 01:58:04 ?
UOSAT-12 22 Oct 01:55:54 01:57:39 12° 247° (WSW) 01:59:24 437.025 FM, 437.400 FM
MaSat-1 22 Oct 02:21:30 02:25:14 42° 128° (SE) 02:28:34 437.345 MHz
Oscar 19 22 Oct 02:25:56 02:30:16 27° 90° (E) 02:34:34 437.125 CW, 437.150 USB
JAS-1B 22 Oct 02:33:15 02:38:35 30° 91° (E) 02:44:36 435.800 - 435.900 CW/SSB
AO-27 22 Oct 02:35:58 02:39:31 18° 83° (E) 02:43:03 436.795 MHz FM
OPAL 22 Oct 02:45:11 02:48:53 21° 33° (NNE) 02:52:33 ?
STRAND 1 22 Oct 02:50:06 02:50:50 10° 9° (N) 02:51:34 ?
Oscar 16 22 Oct 03:10:58 03:15:59 49° 100° (E) 03:20:58 437.025 USB, Beacon 2401.1428
Uribyol 2 22 Oct 03:24:51 03:29:40 35° 94° (E) 03:34:25 436.500 FM
ITAMSAT 1 22 Oct 03:30:03 03:34:54 36° 95° (E) 03:39:43 435.822 SSB
AO-Echo 22 Oct 03:31:04 03:36:07 45° 98° (E) 03:41:12 ?
Gurwin Techsat 1B 22 Oct 03:31:34 03:35:59 26° 88° (E) 03:40:23 435.225 FM
TMSAT-1 22 Oct 03:44:52 03:49:16 25° 88° (E) 03:53:38 436.925 FM
MaSat-1 22 Oct 03:57:15 04:00:59 52° 327° (NNW) 04:04:16 437.345 MHz
RS-15 22 Oct 04:03:02 04:14:02 80° 354° (N) 04:25:18 29.354 - 29.394 USB, Beacon 29.352 USB
Oscar 19 22 Oct 04:05:04 04:10:14 83° 292° (WNW) 04:15:22 437.125 CW, 437.150 USB
AO-27 22 Oct 04:14:49 04:20:04 66° 105° (ESE) 04:25:17 436.795 MHz FM
AO-7 22 Oct 04:21:43 04:27:47 21° 80° (E) 04:33:49 29.400 - 29.500 MHz
OPAL 22 Oct 04:21:58 04:26:56 52° 56° (NE) 04:31:52 ?
JAS-1B 22 Oct 04:23:58 04:29:59 85° 293° (WNW) 04:36:58 435.800 - 435.900 CW/SSB
STRAND 1 22 Oct 04:24:58 04:28:17 18° 33° (NNE) 04:31:36 ?
Oscar 16 22 Oct 04:50:30 04:55:26 47° 302° (WNW) 05:00:19 437.025 USB, Beacon 2401.1428
Sapphire 22 Oct 05:01:12 05:04:28 16° 109° (ESE) 05:07:45 437.095 MHz 1200 baud AX-25 AFSK
Uribyol 2 22 Oct 05:04:19 05:09:32 66° 296° (WNW) 05:14:42 436.500 FM
ITAMSAT 1 22 Oct 05:09:33 05:14:46 64° 297° (WNW) 05:19:56 435.822 SSB
AO-Echo 22 Oct 05:09:57 05:15:02 53° 299° (WNW) 05:20:12 ?
Gurwin Techsat 1B 22 Oct 05:11:17 05:16:40 89° 291° (WNW) 05:22:00 435.225 FM
Uosat F 22 Oct 05:13:36 05:17:42 24° 89° (E) 05:21:46 435.120 FM
PCSat 22 Oct 05:22:54 05:27:02 23° 114° (ESE) 05:31:11 145.825 MHz
TMSAT-1 22 Oct 05:24:32 05:29:54 90° 291° (WNW) 05:35:14 436.925 FM
MaSat-1 22 Oct 05:34:13 05:37:16 26° 349° (N) 05:40:01 437.345 MHz
Oscar 19 22 Oct 05:44:50 05:49:05 27° 314° (NW) 05:53:20 437.125 CW, 437.150 USB
JAS-2 22 Oct 05:50:39 05:56:53 28° 83° (E) 06:03:22 435.800 - 435.900 CW/SSB, 435.910 FM
AO-27 22 Oct 05:54:36 05:59:26 38° 307° (NW) 06:04:15 436.795 MHz FM
OPAL 22 Oct 06:01:01 06:05:58 46° 257° (WSW) 06:10:53 ?
STRAND 1 22 Oct 06:01:36 06:06:27 43° 56° (NE) 06:11:20 ?
AO-7 22 Oct 06:14:16 06:22:31 60° 105° (ESE) 06:30:43 29.400 - 29.500 MHz
JAS-1B 22 Oct 06:15:07 06:20:15 32° 316° (NW) 06:25:56 435.800 - 435.900 CW/SSB
RS-15 22 Oct 06:15:57 06:26:59 89° 206° (SSW) 06:38:23 29.354 - 29.394 USB, Beacon 29.352 USB
Oscar 16 22 Oct 06:30:24 06:33:50 18° 325° (NW) 06:37:15 437.025 USB, Beacon 2401.1428
Sapphire 22 Oct 06:41:36 06:46:50 51° 131° (SE) 06:52:07 437.095 MHz 1200 baud AX-25 AFSK
Uribyol 2 22 Oct 06:44:14 06:48:19 23° 319° (NW) 06:52:22 436.500 FM
Hamsat 22 Oct 06:47:16 06:50:48 25° 91° (E) 06:54:18 145.90 MHz
AO-Echo 22 Oct 06:49:14 06:52:57 20° 322° (NW) 06:56:42 ?
ITAMSAT 1 22 Oct 06:49:30 06:53:32 23° 319° (NW) 06:57:34 435.822 SSB
Gurwin Techsat 1B 22 Oct 06:51:38 06:56:11 30° 313° (NW) 07:00:44 435.225 FM
Uosat F 22 Oct 06:52:04 06:57:11 90° 111° (ESE) 07:02:15 435.120 FM
PCSat 22 Oct 07:04:18 07:09:41 66° 137° (SE) 07:15:06 145.825 MHz
TMSAT-1 22 Oct 07:04:50 07:09:23 30° 313° (NW) 07:13:56 436.925 FM
MaSat-1 22 Oct 07:10:53 07:13:47 26° 13° (NNE) 07:16:24 437.345 MHz
Oscar 19 22 Oct 07:24:52 07:27:01 13° 338° (NNW) 07:29:10 437.125 CW, 437.150 USB
AO-27 22 Oct 07:34:39 07:37:48 16° 330° (NNW) 07:40:57 436.795 MHz FM
JAS-2 22 Oct 07:35:37 07:43:03 74° 105° (ESE) 07:50:56 435.800 - 435.900 CW/SSB, 435.910 FM
STRAND 1 22 Oct 07:40:35 07:45:38 55° 258° (WSW) 07:50:44 ?
OPAL 22 Oct 07:44:09 07:46:09 12° 279° (W) 07:48:09 ?
JAS-1B 22 Oct 08:06:00 08:09:24 16° 342° (NNW) 08:12:59 435.800 - 435.900 CW/SSB
AO-7 22 Oct 08:07:22 08:15:31 61° 310° (NW) 08:23:39 29.400 - 29.500 MHz
Oscar 16 22 Oct 08:10:43 08:11:28 10° 349° (N) 08:12:13 437.025 USB, Beacon 2401.1428
HO-68 22 Oct 08:18:07 08:19:55 11° 67° (ENE) 08:21:43 435.675 MHz FM
Hamsat 22 Oct 08:22:59 08:27:10 68° 292° (WNW) 08:31:20 145.90 MHz
Uribyol 2 22 Oct 08:24:18 08:26:14 12° 343° (NNW) 08:28:11 436.500 FM
Sapphire 22 Oct 08:24:47 08:30:14 72° 335° (NNW) 08:35:42 437.095 MHz 1200 baud AX-25 AFSK
RS-15 22 Oct 08:28:17 08:38:45 52° 235° (SW) 08:49:34 29.354 - 29.394 USB, Beacon 29.352 USB
AO-Echo 22 Oct 08:28:55 08:30:03 11° 345° (NNW) 08:31:11 ?
SO-67 22 Oct 08:28:59 08:32:11 34° 96° (E) 08:35:22 435.3500 MHz FM
ITAMSAT 1 22 Oct 08:29:34 08:31:28 12° 343° (NNW) 08:33:23 435.822 SSB
Uosat F 22 Oct 08:31:14 08:35:33 29° 313° (NW) 08:39:51 435.120 FM
Gurwin Techsat 1B 22 Oct 08:32:09 08:34:46 14° 336° (NNW) 08:37:23 435.225 FM
TMSAT-1 22 Oct 08:45:19 08:47:56 14° 336° (NNW) 08:50:32 436.925 FM
MaSat-1 22 Oct 08:46:50 08:50:00 67° 37° (NE) 08:52:47 437.345 MHz
PCSat 22 Oct 08:47:52 08:53:17 63° 341° (NNW) 08:58:43 145.825 MHz
AO-27 22 Oct 09:14:38 09:15:30 10° 354° (N) 09:16:22 436.795 MHz FM
JAS-2 22 Oct 09:20:57 09:27:52 48° 308° (NW) 09:35:15 435.800 - 435.900 CW/SSB, 435.910 FM
STRAND 1 22 Oct 09:23:10 09:26:01 15° 280° (W) 09:28:53 ?
Saudisat 1A 22 Oct 09:36:13 09:39:31 21° 124° (SE) 09:42:50 436.775 MHz
UKube-1 22 Oct 09:45:34 09:46:30 11° 79° (ENE) 09:47:26 145.840 MHz, 145.915 MHz
Oscar 16 22 Oct 09:47:44 09:48:50 11° 13° (NNE) 09:49:56 437.025 USB, Beacon 2401.1428
JAS-1B 22 Oct 09:55:01 09:57:58 15° 10° (N) 10:00:59 435.800 - 435.900 CW/SSB
Hamsat 22 Oct 09:59:36 10:02:32 19° 314° (NW) 10:05:28 145.90 MHz
AO-7 22 Oct 10:00:02 10:07:10 34° 336° (NNW) 10:14:18 29.400 - 29.500 MHz
SO-67 22 Oct 10:02:00 10:05:15 38° 297° (WNW) 10:08:28 435.3500 MHz FM
Uribyol 2 22 Oct 10:02:49 10:03:45 10° 7° (N) 10:04:41 436.500 FM
HO-68 22 Oct 10:03:30 10:10:05 36° 93° (E) 10:16:37 435.675 MHz FM
ITAMSAT 1 22 Oct 10:08:00 10:09:00 11° 8° (N) 10:10:00 435.822 SSB
Sapphire 22 Oct 10:08:55 10:14:16 53° 359° (N) 10:19:37 437.095 MHz 1200 baud AX-25 AFSK
Uosat F 22 Oct 10:10:42 10:13:01 13° 336° (NNW) 10:15:19 435.120 FM
Gurwin Techsat 1B 22 Oct 10:12:06 10:12:48 10° 1° (N) 10:13:30 435.225 FM
FUNcube-1 22 Oct 10:20:20 10:21:06 10° 77° (ENE) 10:21:52 145.950 - 145.970 MHz USB
MaSat-1 22 Oct 10:23:02 10:25:22 21° 242° (WSW) 10:27:31 437.345 MHz
TMSAT-1 22 Oct 10:25:19 10:25:54 10° 1° (N) 10:26:29 436.925 FM
Oscar 11 22 Oct 10:28:00 10:31:16 21° 88° (E) 10:34:31 145.825 FM, Beacon 2401.500 USB
PCSat 22 Oct 10:32:01 10:37:23 54° 6° (N) 10:42:44 145.825 MHz
Oscar 19 22 Oct 10:39:20 10:41:53 14° 26° (NNE) 10:44:26 437.125 CW, 437.150 USB
RS-15 22 Oct 10:41:08 10:48:27 21° 262° (W) 10:55:56 29.354 - 29.394 USB, Beacon 29.352 USB
AO-27 22 Oct 10:50:58 10:53:04 12° 19° (NNE) 10:55:10 436.795 MHz FM
JAS-2 22 Oct 11:06:05 11:11:34 24° 331° (NNW) 11:17:23 435.800 - 435.900 CW/SSB, 435.910 FM
ZACube-1 22 Oct 11:09:16 11:12:47 23° 89° (E) 11:16:12 437.345 MHz
Saudisat 1A 22 Oct 11:14:06 11:18:27 62° 146° (SE) 11:22:51 436.775 MHz
UKube-1 22 Oct 11:19:35 11:23:50 46° 100° (E) 11:28:04 145.840 MHz, 145.915 MHz
Oscar 16 22 Oct 11:22:54 11:26:31 20° 37° (NE) 11:30:08 437.025 USB, Beacon 2401.1428
SO-67 22 Oct 11:37:01 11:37:24 10° 318° (NW) 11:37:47 435.3500 MHz FM
Uribyol 2 22 Oct 11:38:10 11:41:26 17° 31° (NNE) 11:44:41 436.500 FM
AO-Echo 22 Oct 11:40:37 11:43:47 17° 33° (NNE) 11:47:01 ?
JAS-1B 22 Oct 11:42:20 11:46:51 25° 37° (NE) 11:51:29 435.800 - 435.900 CW/SSB
ITAMSAT 1 22 Oct 11:43:24 11:46:43 17° 32° (NNE) 11:50:02 435.822 SSB
Gurwin Techsat 1B 22 Oct 11:48:04 11:50:50 15° 25° (NNE) 11:53:37 435.225 FM
HO-68 22 Oct 11:51:18 11:58:33 83° 297° (WNW) 12:05:46 435.675 MHz FM
AO-7 22 Oct 11:51:26 11:58:02 28° 3° (N) 12:04:39 29.400 - 29.500 MHz
Sapphire 22 Oct 11:52:51 11:58:19 70° 24° (NNE) 12:03:46 437.095 MHz 1200 baud AX-25 AFSK
FUNcube-1 22 Oct 11:54:26 11:58:41 46° 99° (E) 12:02:48 145.950 - 145.970 MHz USB
TMSAT-1 22 Oct 12:01:10 12:03:53 14° 25° (NNE) 12:06:37 436.925 FM
Oscar 11 22 Oct 12:03:43 12:08:04 89° 289° (WNW) 12:12:24 145.825 FM, Beacon 2401.500 USB
KITSAT 1 22 Oct 12:11:24 12:14:43 13° 95° (E) 12:18:02 435.175 FM
Oscar 19 22 Oct 12:15:27 12:19:57 31° 49° (NE) 12:24:26 437.125 CW, 437.150 USB
PCSat 22 Oct 12:15:49 12:21:19 82° 31° (NNE) 12:26:46 145.825 MHz
AO-27 22 Oct 12:26:54 12:31:04 25° 42° (NE) 12:35:15 436.795 MHz FM
ZACube-1 22 Oct 12:45:19 12:49:44 79° 291° (WNW) 12:54:01 437.345 MHz
JAS-2 22 Oct 12:50:11 12:54:31 18° 356° (N) 12:59:04 435.800 - 435.900 CW/SSB, 435.910 FM
Saudisat 1A 22 Oct 12:53:40 12:58:06 71° 349° (N) 13:02:32 436.775 MHz
UKube-1 22 Oct 12:55:55 13:00:04 42° 302° (WNW) 13:04:12 145.840 MHz, 145.915 MHz
Oscar 16 22 Oct 13:00:00 13:05:00 52° 60° (ENE) 13:10:01 437.025 USB, Beacon 2401.1428
Uribyol 2 22 Oct 13:14:57 13:19:49 40° 54° (NE) 13:24:42 436.500 FM
AO-Echo 22 Oct 13:16:48 13:21:29 43° 56° (ENE) 13:26:20 ?
ITAMSAT 1 22 Oct 13:20:15 13:25:08 41° 55° (NE) 13:30:03 435.822 SSB
Uosat F 22 Oct 13:24:31 13:26:50 13° 24° (NNE) 13:29:09 435.120 FM
Gurwin Techsat 1B 22 Oct 13:24:50 13:29:29 32° 49° (NE) 13:34:08 435.225 FM
FUNcube-1 22 Oct 13:30:58 13:35:06 40° 301° (WNW) 13:39:07 145.950 - 145.970 MHz USB
JAS-1B 22 Oct 13:31:06 13:36:49 69° 63° (ENE) 13:42:34 435.800 - 435.900 CW/SSB
Sapphire 22 Oct 13:36:26 13:41:45 53° 228° (SW) 13:47:01 437.095 MHz 1200 baud AX-25 AFSK
TMSAT-1 22 Oct 13:37:51 13:42:28 31° 48° (NE) 13:47:06 436.925 FM
HO-68 22 Oct 13:39:14 13:45:40 37° 321° (NW) 13:52:05 435.675 MHz FM
Oscar 11 22 Oct 13:40:23 13:43:50 24° 311° (NW) 13:47:16 145.825 FM, Beacon 2401.500 USB
AO-7 22 Oct 13:41:40 13:49:00 37° 30° (NNE) 13:56:20 29.400 - 29.500 MHz
Oscar 19 22 Oct 13:53:46 13:58:57 82° 252° (WSW) 14:04:08 437.125 CW, 437.150 USB
PCSat 22 Oct 13:59:25 14:04:29 40° 234° (SW) 14:09:32 145.825 MHz
KITSAT 1 22 Oct 14:00:37 14:07:55 40° 120° (ESE) 14:15:14 435.175 FM
AO-27 22 Oct 14:04:44 14:09:57 71° 65° (ENE) 14:15:12 436.795 MHz FM
ZACube-1 22 Oct 14:22:15 14:25:37 22° 313° (NW) 14:28:55 437.345 MHz
JAS-2 22 Oct 14:32:34 14:37:21 21° 22° (NNE) 14:42:28 435.800 - 435.900 CW/SSB, 435.910 FM
UKube-1 22 Oct 14:32:57 14:35:21 15° 324° (NW) 14:37:45 145.840 MHz, 145.915 MHz
Saudisat 1A 22 Oct 14:33:33 14:37:59 73° 13° (NNE) 14:42:26 436.775 MHz
SO-50 22 Oct 14:38:06 14:41:16 19° 120° (ESE) 14:44:31 436.795 FM
Oscar 16 22 Oct 14:39:36 14:44:32 44° 262° (W) 14:49:30 437.025 USB, Beacon 2401.1428
Uribyol 2 22 Oct 14:54:00 14:59:11 61° 256° (WSW) 15:04:25 436.500 FM
AO-Echo 22 Oct 14:55:22 15:00:14 55° 259° (W) 15:05:18 ?
ITAMSAT 1 22 Oct 14:59:24 15:04:34 59° 257° (WSW) 15:09:46 435.822 SSB
Uosat F 22 Oct 15:00:00 15:04:18 29° 47° (NE) 15:08:37 435.120 FM
Gurwin Techsat 1B 22 Oct 15:03:44 15:09:05 84° 251° (WSW) 15:14:27 435.225 FM
FUNcube-1 22 Oct 15:08:16 15:10:31 14° 323° (NW) 15:12:44 145.950 - 145.970 MHz USB
TMSAT-1 22 Oct 15:16:40 15:22:00 86° 250° (WSW) 15:27:23 436.925 FM
Sapphire 22 Oct 15:20:42 15:24:10 17° 250° (WSW) 15:27:36 437.095 MHz 1200 baud AX-25 AFSK
JAS-1B 22 Oct 15:22:57 15:28:08 33° 267° (W) 15:33:19 435.800 - 435.900 CW/SSB
HO-68 22 Oct 15:26:30 15:31:45 23° 346° (NNW) 15:37:00 435.675 MHz FM
AO-7 22 Oct 15:32:40 15:40:53 72° 55° (NE) 15:49:09 29.400 - 29.500 MHz
Oscar 19 22 Oct 15:35:07 15:39:06 22° 274° (W) 15:43:05 437.125 CW, 437.150 USB
PCSat 22 Oct 15:44:36 15:46:36 12° 256° (WSW) 15:48:35 145.825 MHz
AO-27 22 Oct 15:45:15 15:49:56 32° 267° (W) 15:54:39 436.795 MHz FM
KITSAT 1 22 Oct 15:54:32 16:02:39 83° 145° (SE) 16:10:47 435.175 FM
Saudisat 1A 22 Oct 16:13:14 16:17:36 59° 215° (SW) 16:21:58 436.775 MHz
JAS-2 22 Oct 16:14:54 16:20:46 40° 47° (NE) 16:27:20 435.800 - 435.900 CW/SSB, 435.910 FM
UOSAT-12 22 Oct 16:15:48 16:18:56 18° 119° (ESE) 16:22:06 437.025 FM, 437.400 FM
SO-50 22 Oct 16:16:32 16:21:02 56° 143° (SE) 16:25:41 436.795 FM
Hamsat 22 Oct 16:16:42 16:19:40 19° 47° (NE) 16:22:37 145.90 MHz
Oscar 16 22 Oct 16:23:32 16:25:18 12° 284° (WNW) 16:27:04 437.025 USB, Beacon 2401.1428
Uribyol 2 22 Oct 16:36:27 16:39:46 17° 278° (W) 16:43:06 436.500 FM
AO-Echo 22 Oct 16:37:32 16:40:14 14° 282° (WNW) 16:42:59 ?
Uosat F 22 Oct 16:37:37 16:42:40 89° 249° (WSW) 16:47:46 435.120 FM
ITAMSAT 1 22 Oct 16:42:00 16:45:12 16° 279° (W) 16:48:25 435.822 SSB
Gurwin Techsat 1B 22 Oct 16:45:38 16:49:51 24° 273° (W) 16:54:06 435.225 FM
TMSAT-1 22 Oct 16:58:28 17:02:43 24° 273° (W) 17:06:59 436.925 FM
HO-68 22 Oct 17:12:14 17:17:25 22° 12° (NNE) 17:22:37 435.675 MHz FM
AO-7 22 Oct 17:26:14 17:34:12 49° 260° (W) 17:42:14 29.400 - 29.500 MHz
ISS 22 Oct 17:35:56 17:37:40 13° 176° (S) 17:39:23 145.800 FM
SO-67 22 Oct 17:40:40 17:42:41 15° 49° (NE) 17:44:42 435.3500 MHz FM
KITSAT 1 22 Oct 17:50:23 17:58:30 70° 352° (N) 18:06:36 435.175 FM
Hamsat 22 Oct 17:50:51 17:55:02 69° 68° (ENE) 17:59:14 145.90 MHz
Saudisat 1A 22 Oct 17:53:18 17:56:30 20° 237° (WSW) 17:59:41 436.775 MHz
UOSAT-12 22 Oct 17:53:41 17:58:16 53° 141° (SE) 18:02:54 437.025 FM, 437.400 FM
SO-50 22 Oct 17:56:55 18:01:36 76° 346° (NNW) 18:06:24 436.795 FM
JAS-2 22 Oct 17:59:08 18:05:24 82° 252° (WSW) 18:12:34 435.800 - 435.900 CW/SSB, 435.910 FM
OPAL 22 Oct 17:59:58 18:03:43 21° 89° (E) 18:07:24 ?
Uosat F 22 Oct 18:18:07 18:22:10 24° 271° (W) 18:26:14 435.120 FM
HO-68 22 Oct 18:57:08 19:03:28 35° 38° (NE) 19:09:49 435.675 MHz FM
SO-67 22 Oct 19:11:41 19:15:07 67° 69° (ENE) 19:18:34 435.3500 MHz FM
ISS 22 Oct 19:12:19 19:13:21 11° 196° (SSW) 19:14:23 145.800 FM
UKube-1 22 Oct 19:16:39 19:18:44 13° 34° (NE) 19:20:49 145.840 MHz, 145.915 MHz
AO-7 22 Oct 19:24:21 19:29:21 17° 286° (WNW) 19:34:22 29.400 - 29.500 MHz
Hamsat 22 Oct 19:27:55 19:31:25 25° 269° (W) 19:34:56 145.90 MHz
UOSAT-12 22 Oct 19:33:38 19:38:23 78° 344° (NNW) 19:43:10 437.025 FM, 437.400 FM
SO-50 22 Oct 19:37:46 19:42:30 71° 9° (N) 19:47:20 436.795 FM
OPAL 22 Oct 19:38:22 19:43:26 78° 112° (ESE) 19:48:25 ?
STRAND 1 22 Oct 19:39:59 19:44:17 26° 89° (E) 19:48:33 ?
JAS-2 22 Oct 19:46:22 19:51:38 27° 278° (W) 19:57:28 435.800 - 435.900 CW/SSB, 435.910 FM
KITSAT 1 22 Oct 19:46:28 19:54:37 78° 20° (NNE) 20:02:44 435.175 FM
FUNcube-1 22 Oct 19:52:23 19:54:14 12° 34° (NE) 19:56:04 145.950 - 145.970 MHz USB
Oscar 11 22 Oct 19:59:05 20:01:59 18° 43° (NE) 20:04:53 145.825 FM, Beacon 2401.500 USB
ZACube-1 22 Oct 20:41:14 20:44:33 20° 46° (NE) 20:47:50 437.345 MHz
HO-68 22 Oct 20:43:19 20:50:30 79° 62° (ENE) 20:57:44 435.675 MHz FM
SO-67 22 Oct 20:45:52 20:48:29 20° 270° (W) 20:51:06 435.3500 MHz FM
UKube-1 22 Oct 20:49:55 20:53:55 36° 56° (NE) 20:57:57 145.840 MHz, 145.915 MHz
UOSAT-12 22 Oct 21:14:07 21:18:53 70° 8° (N) 21:23:38 437.025 FM, 437.400 FM
OPAL 22 Oct 21:17:34 21:22:02 33° 314° (NW) 21:26:28 ?
SO-50 22 Oct 21:18:27 21:23:11 68° 213° (SSW) 21:28:01 436.795 FM
STRAND 1 22 Oct 21:18:56 21:24:09 87° 291° (WNW) 21:29:19 ?
FUNcube-1 22 Oct 21:25:27 21:29:33 33° 56° (NE) 21:33:34 145.950 - 145.970 MHz USB
Oscar 11 22 Oct 21:33:13 21:37:29 59° 65° (ENE) 21:41:46 145.825 FM, Beacon 2401.500 USB
KITSAT 1 22 Oct 21:42:05 21:50:02 62° 227° (SW) 21:57:56 435.175 FM
ZACube-1 22 Oct 22:15:48 22:20:21 68° 67° (ENE) 22:24:50 437.345 MHz
UKube-1 22 Oct 22:25:45 22:30:02 54° 257° (WSW) 22:34:22 145.840 MHz, 145.915 MHz
HO-68 22 Oct 22:32:16 22:38:53 39° 266° (W) 22:45:34 435.675 MHz FM
UOSAT-12 22 Oct 22:54:26 22:59:11 71° 211° (SSW) 23:03:54 437.025 FM, 437.400 FM
OPAL 22 Oct 22:56:51 22:59:45 16° 337° (NNW) 23:02:38 ?
STRAND 1 22 Oct 22:58:30 23:02:53 29° 313° (NW) 23:07:15 ?
SO-50 22 Oct 22:59:18 23:03:11 25° 235° (SW) 23:07:06 436.795 FM
FUNcube-1 22 Oct 23:01:14 23:05:46 62° 257° (WSW) 23:10:15 145.950 - 145.970 MHz USB
RS-15 22 Oct 23:05:48 23:14:52 32° 109° (ESE) 23:23:58 29.354 - 29.394 USB, Beacon 29.352 USB
Oscar 11 22 Oct 23:10:07 23:13:59 31° 266° (W) 23:17:51 145.825 FM, Beacon 2401.500 USB
KITSAT 1 22 Oct 23:37:53 23:44:06 25° 251° (WSW) 23:50:18 435.175 FM
ZACube-1 22 Oct 23:53:09 23:57:08 29° 268° (W) 00:01:04 437.345 MHz
UKube-1 23 Oct 00:05:21 00:07:15 13° 279° (W) 00:09:10 145.840 MHz, 145.915 MHz
HO-68 23 Oct 00:26:27 00:28:57 12° 291° (WNW) 00:31:27 435.675 MHz FM
UOSAT-12 23 Oct 00:34:52 00:38:49 26° 233° (SW) 00:42:43 437.025 FM, 437.400 FM
OPAL 23 Oct 00:35:12 00:36:56 12° 1° (N) 00:38:40 ?
STRAND 1 23 Oct 00:38:19 00:40:42 13° 337° (NNW) 00:43:05 ?
FUNcube-1 23 Oct 00:40:26 00:43:03 15° 278° (W) 00:45:39 145.950 - 145.970 MHz USB
JAS-1B 23 Oct 01:04:36 01:05:13 10° 71° (ENE) 01:05:51 435.800 - 435.900 CW/SSB
